Weather in Aberfeldy

United Kingdom     56°37′09″N   3°52′00″W
temp.,
°C
wind,
m/s
gust,
m/s
humid.,
%
clouds,
%
prec.,
mm/h
press.,
hPa
HPBL,
m
12 may, wed
wed1201:00+6ne2697100 2.4 1008717
04:00+6e3798100 2.1 1007830
07:00+6ene2697100 2.8 1007581
10:00+7ene2798100 1.6 1007865
13:00+8ene369595 3.1 1007658
16:00+9e3590100 2.3 1007638
19:00+8e359366 4.0 1008483
22:00+6e2296100 0.2 1010139
13 may, thu
thu1301:00+6ne1196100 0.3 101166
04:00+6e1197100 0.0 101130
07:00+6ene1196100 0.0 101293
10:00+7ene1190100 0.0 1012321
13:00+9ne1282100 0.1 1012553
16:00+9ese2485100 0.3 1012577
19:00+8ese2591100 0.8 1013496
22:00+6sse1298100 0.2 1014182
14 may, fri
fri1401:00+5se1197100 0.2 101355
04:00+5ne1194100 0.0 101327
07:00+5n128897 0.0 1013178
10:00+7nnw2271100 0.0 1011980
13:00+8w1165100 0.0 1010769
16:00+10s1157100 0.0 10091229
19:00+9s1275100 0.1 1008383
22:00+7se1185100 0.1 100711
15 may, sat
sat1501:00+6e1190100 0.1 100742
04:00+5ene119399 0.0 100637
07:00+5e1188100 0.0 1005158
10:00+9ese116595 0.0 1004718
13:00+10se2264100 0.1 1003992
16:00+10ese1269100 0.1 1002853
19:00+10ese348074 0.4 1002643
22:00+6ene1295100 0.2 100266
16 may, sun
sun1601:00+6ene129798 0.6 1002171
04:00+5ene1297100 0.0 1001113
07:00+5ene1398100 0.3 1001216
10:00+6ene1599100 0.2 1000496
13:00+8ese1295100 1.1 1000293
16:00+9e228743 1.9 999465
19:00+9se238686 3.8 998445
22:00+5ene119799 1.5 99912